TimeEDT,TemperatureF,Dew PointF,Humidity,Sea Level PressureIn,VisibilityMPH,Wind Direction,Wind SpeedMPH,Gust SpeedMPH,PrecipitationIn,Events,Conditions,WindDirDegrees,DateUTC
12:52 AM,50.0,46.9,89,29.93,10.0,SE,11.5,21.9,N/A,,Overcast,130,2013-05-22 04:52:00
1:52 AM,50.0,46.9,89,29.91,10.0,SSE,8.1,-,N/A,,Mostly Cloudy,160,2013-05-22 05:52:00
2:21 AM,51.8,46.4,82,29.95,10.0,SSW,9.2,-,N/A,,Overcast,210,2013-05-22 06:21:00
2:44 AM,50.0,46.4,87,29.93,2.5,ESE,4.6,-,0.07,Rain,Heavy Rain,120,2013-05-22 06:44:00
2:52 AM,48.9,48.0,97,29.94,3.0,SSE,3.5,-,0.10,Rain,Rain,150,2013-05-22 06:52:00
3:52 AM,50.0,46.9,89,29.89,9.0,Calm,Calm,-,0.05,Rain,Light Rain,0,2013-05-22 07:52:00
4:52 AM,51.1,48.0,89,29.89,8.0,Calm,Calm,-,0.06,Rain,Light Rain,0,2013-05-22 08:52:00
5:09 AM,50.0,48.2,94,29.86,4.0,Calm,Calm,-,0.02,Rain,Rain,0,2013-05-22 09:09:00
5:52 AM,50.0,48.9,96,29.90,1.8,NNW,4.6,-,0.05,Rain,Light Rain,340,2013-05-22 09:52:00
6:08 AM,50.0,48.2,94,29.89,2.5,North,3.5,-,0.01,Rain,Light Rain,350,2013-05-22 10:08:00
6:34 AM,50.0,48.2,94,29.89,3.0,NNW,3.5,-,0.04,Rain,Light Rain,340,2013-05-22 10:34:00
6:52 AM,50.0,48.9,96,29.90,3.0,Calm,Calm,-,0.05,Rain,Light Rain,0,2013-05-22 10:52:00
7:19 AM,51.8,48.2,88,29.90,2.0,Calm,Calm,-,0.01,Rain,Light Rain,0,2013-05-22 11:19:00
7:37 AM,51.8,48.2,88,29.90,7.0,Calm,Calm,-,0.01,,Overcast,0,2013-05-22 11:37:00
7:47 AM,51.8,50.0,94,29.91,8.0,Calm,Calm,-,0.01,,Overcast,0,2013-05-22 11:47:00
7:52 AM,51.1,50.0,96,29.92,8.0,Calm,Calm,-,0.01,,Overcast,0,2013-05-22 11:52:00
8:29 AM,51.8,48.2,88,29.91,10.0,Calm,Calm,-,N/A,,Overcast,0,2013-05-22 12:29:00
8:52 AM,52.0,50.0,93,29.93,10.0,Calm,Calm,-,N/A,,Overcast,0,2013-05-22 12:52:00
9:52 AM,53.1,50.0,89,29.93,10.0,Calm,Calm,-,N/A,,Overcast,0,2013-05-22 13:52:00
10:20 AM,53.6,51.8,94,29.92,10.0,Calm,Calm,-,N/A,,Overcast,0,2013-05-22 14:20:00
10:49 AM,55.4,51.8,88,29.92,10.0,Calm,Calm,-,N/A,,Overcast,0,2013-05-22 14:49:00
10:52 AM,55.9,52.0,87,29.94,10.0,SSW,3.5,-,N/A,,Overcast,200,2013-05-22 14:52:00
11:52 AM,57.9,53.1,84,29.93,10.0,South,3.5,-,N/A,,Overcast,190,2013-05-22 15:52:00
12:52 PM,62.1,54.0,75,29.92,10.0,Calm,Calm,-,N/A,,Overcast,0,2013-05-22 16:52:00
1:18 PM,62.6,55.4,77,29.91,10.0,SSE,3.5,-,N/A,,Overcast,150,2013-05-22 17:18:00
1:52 PM,66.0,55.9,70,29.90,10.0,East,3.5,-,N/A,,Overcast,80,2013-05-22 17:52:00
2:52 PM,68.0,57.0,68,29.88,10.0,NNW,5.8,-,N/A,,Overcast,340,2013-05-22 18:52:00
3:52 PM,68.0,57.0,68,29.88,10.0,South,6.9,-,N/A,,Scattered Clouds,170,2013-05-22 19:52:00
4:06 PM,68.0,57.2,68,29.88,10.0,South,5.8,-,N/A,,Mostly Cloudy,170,2013-05-22 20:06:00
4:21 PM,68.0,55.4,64,29.88,10.0,South,9.2,-,N/A,,Scattered Clouds,170,2013-05-22 20:21:00
4:52 PM,64.0,55.0,73,29.89,10.0,South,9.2,-,0.01,,Scattered Clouds,180,2013-05-22 20:52:00
5:52 PM,62.1,54.0,75,29.91,10.0,SSE,5.8,-,N/A,,Mostly Cloudy,150,2013-05-22 21:52:00
6:52 PM,57.0,55.0,93,29.91,10.0,South,6.9,-,0.04,Rain,Light Rain,190,2013-05-22 22:52:00
7:52 PM,55.9,54.0,93,29.91,7.0,SSW,3.5,-,0.09,Rain,Light Rain,210,2013-05-22 23:52:00
8:52 PM,55.9,54.0,93,29.91,10.0,Calm,Calm,-,0.04,Rain,Light Rain,0,2013-05-23 00:52:00
9:19 PM,55.4,53.6,94,29.90,10.0,Calm,Calm,-,0.00,,Mostly Cloudy,0,2013-05-23 01:19:00
9:26 PM,55.4,53.6,94,29.90,10.0,Calm,Calm,-,0.00,,Mostly Cloudy,0,2013-05-23 01:26:00
9:52 PM,55.0,53.1,93,29.92,10.0,Calm,Calm,-,0.00,,Scattered Clouds,0,2013-05-23 01:52:00
10:52 PM,55.0,54.0,96,29.90,10.0,Calm,Calm,-,N/A,,Mostly Cloudy,0,2013-05-23 02:52:00
11:52 PM,53.1,51.1,93,29.87,10.0,SE,3.5,-,N/A,,Clear,140,2013-05-23 03:52:00